EW9991 Weather Reports


Display with metric or nautical units.
time (UTC)temp
F
wind
direction
speed
MPH
gust
MPH
rain 1hr
in
rain 24hr
in
rain mn
in
humidity
%
barometer
mb
20191021124323 52 204 0.0 2.0 0.00 0.01 0.00 98 1017.1
20191021123821 51 162 0.0 2.0 0.00 0.01 0.00 98 1017.1
20191021123235 51 212 0.0 2.0 0.00 0.01 0.00 98 1017.4
20191021122437 51 18 2.0 5.0 0.00 0.01 0.00 98 1017.1
20191021121932 51 194 0.0 5.0 0.00 0.01 0.00 98 1017.1
20191021121413 51 344 2.0 5.0 0.00 0.01 0.00 98 1017.1
20191021120853 0 0.0 0.0 0.00 0.01 0.00 1017.1
20191021115524 51 80 0.0 2.0 0.00 0.01 0.00 99 1017.1
20191021114856 51 316 0.0 0.0 0.00 0.01 0.00 99 1017.1
20191021114331 51 284 0.0 2.0 0.00 0.01 0.00 99 1017.1
20191021113716 51 346 1.0 2.0 0.00 0.01 0.00 99 1017.1
20191021112919 51 194 0.0 0.0 0.00 0.01 0.00 98 1016.7
20191021112315 51 165 0.0 0.0 0.00 0.01 0.00 98 1016.7
20191021111723 51 238 0.0 0.0 0.00 0.01 0.00 98 1017.1
20191021111019 51 39 0.0 0.0 0.00 0.01 0.00 98 1016.7
20191021110059 51 125 0.0 0.0 0.00 0.01 0.00 98 1016.4
20191021105149 51 15 0.0 0.0 0.00 0.01 0.00 97 1016.4
20191021104618 51 32 0.0 0.0 0.00 0.01 0.00 97 1016.4
20191021104121 51 153 0.0 0.0 0.00 0.01 0.00 97 1016.4
20191021103542 51 263 0.0 0.0 0.00 0.01 0.00 97 1016.4
20191021102859 51 12 1.0 2.0 0.00 0.01 0.00 97 1016.0
20191021102047 52 128 0.0 0.0 0.00 0.01 0.00 96 1016.0
20191021101242 52 17 0.0 2.0 0.00 0.01 0.00 96 1016.0
20191021100649 52 57 0.0 2.0 0.00 0.01 0.00 96 1016.0
20191021100146 52 12 1.0 5.0 0.00 0.01 0.00 97 1015.7
20191021095632 52 27 0.0 5.0 0.00 0.01 0.00 97 1015.7
20191021095122 52 196 0.0 2.0 0.00 0.01 0.00 97 1015.7
20191021094334 52 69 0.0 0.0 0.00 0.01 0.00 97 1015.7
20191021093448 52 17 0.0 2.0 0.00 0.01 0.00 97 1015.7
20191021092855 52 313 0.0 2.0 0.00 0.01 0.00 97 1015.7
20191021092234 52 22 1.0 2.0 0.00 0.01 0.00 98 1015.7
20191021091728 52 229 0.0 2.0 0.00 0.01 0.00 98 1015.7
20191021090848 52 144 0.0 0.0 0.00 0.01 0.00 98 1015.4
20191021090056 52 139 0.0 0.0 0.00 0.01 0.00 98 1015.4
20191021085522 52 182 0.0 0.0 0.00 0.01 0.00 98 1015.4
20191021085025 52 151 0.0 2.0 0.00 0.01 0.00 98 1015.4
20191021084457 52 136 0.0 0.0 0.00 0.01 0.00 98 1015.4
20191021083757 52 28 0.0 5.0 0.00 0.01 0.00 98 1015.4
20191021083250 52 205 0.0 5.0 0.00 0.01 0.00 98 1014.7
20191021082637 52 23 0.0 0.0 0.00 0.01 0.00 98 1014.7
20191021081708 52 158 0.0 0.0 0.00 0.01 0.00 98 1015.0
20191021081117 52 177 0.0 0.0 0.00 0.01 0.00 98 1015.4
20191021080456 52 173 0.0 0.0 0.00 0.01 0.00 98 1015.4
20191021075956 52 212 0.0 2.0 0.00 0.01 0.00 98 1015.4
20191021075157 52 21 0.0 2.0 0.00 0.01 0.00 98 1015.0
20191021074652 52 107 0.0 2.0 0.00 0.01 0.00 98 1014.7
20191021074018 52 244 0.0 2.0 0.00 0.01 0.00 98 1015.0
20191021073508 52 149 0.0 0.0 0.00 0.01 0.00 98 1015.0
20191021072538 52 188 0.0 2.0 0.00 0.01 0.00 98 1015.0
20191021071824 52 203 0.0 2.0 0.00 0.01 0.00 98 1015.0
20191021071253 52 47 1.0 2.0 0.00 0.01 0.00 98 1014.7
20191021070749 52 17 1.0 2.0 0.00 0.01 0.00 98 1014.7
20191021070221 52 228 0.0 0.0 0.00 0.01 0.00 98 1015.0
20191021065651 52 202 0.0 0.0 0.00 0.01 0.00 98 1015.4
20191021065104 52 193 0.0 0.0 0.00 0.01 0.00 98 1015.4
20191021064338 52 182 0.0 0.0 0.00 0.01 0.00 98 1015.4
20191021063838 52 176 0.0 0.0 0.00 0.01 0.00 98 1015.4
20191021063218 52 10 0.0 0.0 0.00 0.01 0.00 98 1015.4
20191021062659 52 184 0.0 0.0 0.00 0.01 0.00 98 1015.0
20191021061944 52 177 0.0 0.0 0.00 0.01 0.00 98 1015.0
20191021061300 52 184 0.0 0.0 0.00 0.01 0.00 98 1015.0
20191021060745 52 147 0.0 0.0 0.00 0.01 0.00 98 1015.0
20191021060233 52 220 0.0 0.0 0.00 0.01 0.00 98 1015.0
20191021055301 52 202 0.0 0.0 0.00 0.01 0.00 98 1015.4
20191021054759 52 182 0.0 0.0 0.00 0.01 0.00 98 1015.4
20191021054152 52 175 0.0 0.0 0.00 0.01 0.00 98 1015.4
20191021053638 52 154 0.0 0.0 0.00 0.01 0.00 98 1015.4
20191021053140 52 183 0.0 0.0 0.00 0.01 0.00 98 1015.7
20191021052433 52 175 0.0 0.0 0.00 0.01 0.00 98 1015.7
20191021051759 52 193 0.0 0.0 0.00 0.01 0.00 98 1015.7
20191021051222 52 17 0.0 0.0 0.00 0.01 0.00 98 1015.4
20191021050630 52 256 0.0 0.0 0.00 0.01 0.00 98 1015.7
20191021050025 52 154 0.0 0.0 0.00 0.01 0.00 98 1015.4
20191021045524 52 143 0.0 0.0 0.00 0.01 0.00 98 1015.4
20191021044944 52 138 0.0 2.0 0.00 0.01 0.00 98 1015.4
20191021044323 52 306 0.0 2.0 0.00 0.01 0.00 98 1015.4
20191021043825 52 142 0.0 0.0 0.00 0.01 0.00 98 1015.4
20191021043304 52 223 0.0 0.0 0.00 0.01 0.00 98 1015.7
20191021042806 52 193 0.0 0.0 0.01 0.01 0.00 97 1015.7
20191021042224 52 182 0.0 0.0 0.01 0.01 0.00 97 1015.7
20191021041619 52 168 0.0 0.0 0.01 0.01 0.00 97 1015.7
20191021041111 52 185 0.0 0.0 0.01 0.01 0.00 97 1015.7
20191021040514 52 164 0.0 0.0 0.01 0.01 0.00 96 1015.7
20191021035951 52 200 0.0 0.0 0.01 0.01 0.01 96 1015.7
20191021035423 52 188 0.0 0.0 0.01 0.01 0.01 95 1016.0
20191021034854 52 190 0.0 0.0 0.01 0.01 0.01 95 1015.7
20191021034323 52 228 0.0 2.0 0.01 0.01 0.01 95 1015.4
20191021033742 52 169 0.0 2.0 0.01 0.01 0.01 95 1015.4
20191021033126 52 171 0.0 2.0 0.00 0.00 0.00 95 1015.4
20191021032509 52 66 0.0 0.0 0.00 0.00 0.00 95 1015.4
20191021031940 52 119 0.0 2.0 0.00 0.00 0.00 95 1015.7
20191021031259 52 15 0.0 2.0 0.00 0.00 0.00 95 1015.7
20191021030715 52 226 0.0 2.0 0.00 0.00 0.00 95 1015.7
20191021030200 52 338 1.0 2.0 0.00 0.00 0.00 95 1015.7
20191021025642 52 179 0.0 0.0 0.00 0.00 0.00 95 1015.7
20191021025130 52 232 0.0 0.0 0.00 0.00 0.00 95 1015.7
20191021024634 53 260 0.0 0.0 0.00 0.00 0.00 95 1015.7
20191021023845 53 17 0.0 2.0 0.00 0.00 0.00 95 1015.4
20191021023347 53 155 0.0 0.0 0.00 0.00 0.00 94 1015.4
20191021022646 53 148 0.0 0.0 0.00 0.00 0.00 94 1015.4
20191021022018 53 167 0.0 0.0 0.00 0.00 0.00 93 1015.4
20191021021506 53 185 0.0 0.0 0.00 0.00 0.00 93 1015.4
20191021020917 53 171 0.0 2.0 0.00 0.00 0.00 92 1015.4
20191021020329 53 131 0.0 0.0 0.00 0.00 0.00 91 1015.4
20191021015606 53 163 0.0 0.0 0.00 0.00 0.00 91 1015.4
20191021015053 54 198 0.0 0.0 0.00 0.00 0.00 90 1015.4
20191021014521 54 181 0.0 0.0 0.00 0.00 0.00 90 1015.4
20191021013929 54 187 0.0 0.0 0.00 0.00 0.00 90 1015.4
20191021013103 53 164 0.0 0.0 0.00 0.00 0.00 91 1015.7
20191021012321 53 174 0.0 0.0 0.00 0.00 0.00 91 1015.4
20191021011624 53 174 0.0 0.0 0.00 0.00 0.00 91 1015.7
20191021010854 54 160 0.0 0.0 0.00 0.00 0.00 90 1015.7
20191021005850 53 187 0.0 0.0 0.00 0.00 0.00 91 1015.7
20191021005207 53 191 0.0 0.0 0.00 0.00 0.00 91 1015.4
20191021004255 54 189 0.0 0.0 0.00 0.00 0.00 89 1015.4
20191021003752 54 165 0.0 0.0 0.00 0.00 0.00 89 1015.4
20191021002821 54 127 0.0 0.0 0.00 0.00 0.00 89 1015.7
20191021002245 54 192 0.0 0.0 0.00 0.00 0.00 89 1015.4
20191021001634 54 188 0.0 0.0 0.00 0.00 0.00 89 1015.4
20191021001126 54 187 0.0 0.0 0.00 0.00 0.00 89 1015.7
20191021000527 53 144 0.0 0.0 0.00 0.00 0.00 89 1015.4
20191020235847 53 181 0.0 0.0 0.00 0.00 0.00 89 1015.4
20191020235343 53 183 0.0 0.0 0.00 0.00 0.00 89 1015.4
20191020234802 53 206 0.0 0.0 0.00 0.00 0.00 89 1015.4
20191020234028 53 184 0.0 0.0 0.00 0.00 0.00 88 1015.4
20191020233420 53 188 0.0 0.0 0.00 0.00 0.00 88 1015.4
20191020232901 53 182 0.0 0.0 0.00 0.00 0.00 87 1015.4
20191020232320 53 175 0.0 0.0 0.00 0.00 0.00 86 1015.4
20191020231645 53 168 0.0 0.0 0.00 0.00 0.00 85 1015.4
20191020230704 53 186 0.0 0.0 0.00 0.00 0.00 84 1015.4
20191020225833 53 171 0.0 0.0 0.00 0.00 0.00 83 1015.4
20191020225330 54 182 0.0 0.0 0.00 0.00 0.00 81 1015.4
20191020224702 54 182 0.0 0.0 0.00 0.00 0.00 80 1015.4
20191020223725 54 151 0.0 0.0 0.00 0.00 0.00 79 1015.0
20191020223154 54 188 0.0 0.0 0.00 0.00 0.00 78 1015.4
20191020222625 54 180 0.0 2.0 0.00 0.00 0.00 78 1015.4
20191020222049 54 185 0.0 0.0 0.00 0.00 0.00 76 1015.0
20191020221555 54 182 0.0 0.0 0.00 0.00 0.00 76 1015.4
20191020220846 55 176 0.0 0.0 0.00 0.00 0.00 76 1015.4
20191020220132 55 188 0.0 0.0 0.00 0.00 0.00 75 1015.0
20191020215620 55 164 0.0 0.0 0.00 0.00 0.00 75 1015.4
20191020215047 55 187 0.0 0.0 0.00 0.00 0.00 74 1015.4
20191020214507 55 181 0.0 2.0 0.00 0.00 0.00 74 1015.4
20191020214001 55 196 0.0 2.0 0.00 0.00 0.00 73 1015.4
20191020213315 56 177 0.0 0.0 0.00 0.00 0.00 73 1015.4
20191020212817 56 75 0.0 0.0 0.00 0.00 0.00 73 1015.4
20191020212221 57 151 0.0 0.0 0.00 0.00 0.00 72 1015.4
20191020211553 57 184 0.0 0.0 0.00 0.00 0.00 72 1015.4
20191020210920 58 168 0.0 0.0 0.00 0.00 0.00 70 1015.7
20191020210357 58 178 0.0 0.0 0.00 0.00 0.00 70 1015.7
20191020205642 58 178 0.0 0.0 0.00 0.00 0.00 68 1015.7
20191020205143 58 187 0.0 0.0 0.00 0.00 0.00 68 1015.7
20191020204623 58 183 0.0 0.0 0.00 0.00 0.00 67 1015.7
20191020204057 59 191 0.0 0.0 0.00 0.00 0.00 64 1015.7
20191020203518 59 199 0.0 0.0 0.00 0.00 0.00 62 1016.0
20191020202949 60 178 0.0 0.0 0.00 0.00 0.00 60 1015.7
20191020202314 60 181 0.0 0.0 0.00 0.00 0.00 55 1016.0
20191020201747 60 179 0.0 0.0 0.00 0.00 0.00 50 1016.0
20191020201019 61 179 0.0 0.0 0.00 0.00 0.00 47 1015.7
20191020200441 60 179 0.0 0.0 0.00 0.00 0.00 47 1016.0
20191020195841 60 200 0.0 0.0 0.00 0.00 0.00 46 1015.7
20191020195052 61 191 0.0 0.0 0.00 0.00 0.00 45 1015.7
20191020194506 61 191 0.0 0.0 0.00 0.00 0.00 46 1016.0
20191020194001 61 163 0.0 0.0 0.00 0.00 0.00 47 1016.0
20191020193413 61 176 0.0 2.0 0.00 0.00 0.00 48 1015.7
20191020192828 61 175 0.0 0.0 0.00 0.00 0.00 47 1015.7
20191020192221 62 197 0.0 0.0 0.00 0.00 0.00 47 1015.7
20191020191622 61 178 0.0 0.0 0.00 0.00 0.00 49 1015.7
20191020191037 61 199 0.0 0.0 0.00 0.00 0.00 50 1015.7
20191020190501 61 189 0.0 0.0 0.00 0.00 0.00 49 1016.0
20191020185955 61 201 0.0 0.0 0.00 0.00 0.00 49 1016.0
20191020185433 62 198 0.0 0.0 0.00 0.00 0.00 49 1016.0
20191020184917 61 200 0.0 2.0 0.00 0.00 0.00 49 1016.0
20191020184417 61 193 0.0 2.0 0.00 0.00 0.00 48 1016.0
20191020183844 62 211 0.0 2.0 0.00 0.00 0.00 49 1016.0
20191020183306 61 198 0.0 2.0 0.00 0.00 0.00 46 1016.0
20191020182718 62 211 0.0 5.0 0.00 0.00 0.00 45 1016.0
20191020182158 62 175 0.0 0.0 0.00 0.00 0.00 49 1016.0
20191020180856 62 183 0.0 2.0 0.00 0.00 0.00 49 1016.0
20191020180058 63 240 0.0 0.0 0.00 0.00 0.00 47 1015.7
20191020175454 62 192 0.0 0.0 0.00 0.00 0.00 49 1015.7
20191020174833 62 173 0.0 2.0 0.00 0.00 0.00 49 1015.7
20191020174302 62 71 0.0 2.0 0.00 0.00 0.00 50 1016.0
20191020173756 60 189 0.0 2.0 0.00 0.00 0.00 51 1015.7
20191020173149 61 197 0.0 0.0 0.00 0.00 0.00 51 1015.7
20191020172128 61 195 2.0 5.0 0.00 0.00 0.00 51 1016.0
20191020171553 61 62 2.0 2.0 0.00 0.00 0.00 50 1016.0
20191020171040 62 186 0.0 2.0 0.00 0.00 0.00 50 1016.0
20191020170405 61 191 0.0 2.0 0.00 0.00 0.00 50 1016.0
20191020165846 62 207 0.0 2.0 0.00 0.00 0.00 50 1016.0
20191020165322 61 191 0.0 0.0 0.00 0.00 0.00 50 1016.0
20191020164714 60 193 0.0 0.0 0.00 0.00 0.00 51 1016.0
20191020164105 61 196 0.0 2.0 0.00 0.00 0.00 50 1016.0
20191020163441 61 195 0.0 2.0 0.00 0.00 0.00 50 1016.0
20191020162806 61 65 0.0 0.0 0.00 0.00 0.00 50 1016.4
20191020162210 60 211 0.0 0.0 0.00 0.00 0.00 53 1016.7
20191020161653 59 235 0.0 2.0 0.00 0.00 0.00 53 1016.4
20191020161131 60 181 0.0 0.0 0.00 0.00 0.00 54 1016.4
20191020160522 59 200 0.0 0.0 0.00 0.00 0.00 56 1016.7
20191020155934 59 222 0.0 2.0 0.00 0.00 0.00 59 1017.1
20191020155235 58 192 0.0 0.0 0.00 0.00 0.00 61 1017.1
20191020154723 58 214 0.0 2.0 0.00 0.00 0.00 62 1017.1
20191020153755 58 209 0.0 2.0 0.00 0.00 0.00 63 1017.1
20191020152840 57 222 0.0 0.0 0.00 0.00 0.00 64 1017.1
20191020152221 57 186 0.0 2.0 0.00 0.00 0.00 64 1017.1
20191020151555 57 215 0.0 2.0 0.00 0.00 0.00 64 1017.1
20191020150816 58 184 0.0 2.0 0.00 0.00 0.00 64 1017.1
20191020150246 56 93 0.0 2.0 0.00 0.00 0.00 66 1017.1
20191020145524 56 65 1.0 2.0 0.00 0.00 0.00 67 1017.1
20191020144823 55 19 1.0 2.0 0.00 0.00 0.00 68 1017.1
20191020144148 54 12 0.0 2.0 0.00 0.00 0.00 70 1017.1
20191020143346 52 200 0.0 0.0 0.00 0.00 0.00 71 1017.1
20191020142448 52 178 0.0 2.0 0.00 0.00 0.00 71 1017.4
20191020141940 51 176 0.0 5.0 0.00 0.00 0.00 73 1017.4
20191020141332 50 73 0.0 2.0 0.00 0.00 0.00 75 1017.1
20191020140624 49 15 4.0 5.0 0.00 0.00 0.00 77 1017.1
20191020135855 49 142 0.0 0.0 0.00 0.00 0.00 77 1017.1
20191020135318 48 31 0.0 2.0 0.00 0.00 0.00 79 1017.1
20191020134601 47 137 0.0 2.0 0.00 0.00 0.00 80 1016.7
20191020133953 46 277 1.0 2.0 0.00 0.00 0.00 80 1016.7
20191020133452 46 57 1.0 2.0 0.00 0.00 0.00 82 1017.1
20191020132540 45 28 1.0 2.0 0.00 0.00 0.00 83 1016.7
20191020132024 44 266 0.0 2.0 0.00 0.00 0.00 86 1016.7
20191020131433 43 27 1.0 2.0 0.00 0.00 0.00 86 1016.7
20191020130921 42 44 1.0 2.0 0.00 0.00 0.00 90 1016.4
20191020130023 42 125 0.0 2.0 0.00 0.00 0.00 91 1016.7
20191020125426 41 26 1.0 2.0 0.00 0.00 0.00 92 1016.7
20191020124924 40 50 0.0 2.0 0.00 0.00 0.00 94 1016.7